Lid_Strength_Index
10 10 10 10 9 9 9 9 9 9 8 9 9 9 9 9 9 10 10 10 11 11 11 10 10 10 10 10 9 10 11 11 13 12 11 10 10 9 8 8 8 8 8
10 10 10 10 10 11 10 9 9 9 9 9 9 9 9 9 9 10 10 10 11 11 11 11 10 10 10 10 10 11 11 11 12 13 11 10 10 9 9 9 8 8 8
11 11 11 11 11 11 11 10 9 9 9 9 9 10 10 10 10 10 10 10 11 11 11 11 10 10 11 11 12 12 11 11 11 12 12 11 10 10 11 10 10 10 8
12 13 13 12 12 11 11 10 10 10 9 9 10 10 10 10 10 10 10 11 11 11 11 10 10 11 11 12 12 12 11 12 12 12 12 12 12 11 11 12 12 11 11
14 14 13 12 12 11 12 11 11 10 10 9 10 10 10 10 10 10 10 11 12 12 11 10 11 11 11 11 12 12 12 13 12 13 13 13 13 13 13 12 12 12 10
14 14 14 14 13 13 12 12 12 11 11 10 10 11 11 10 8 8 9 12 12 13 13 13 12 12 11 11 11 11 11 13 13 13 13 13 13 13 12 12 12 13 14
15 14 14 14 13 13 13 13 13 13 12 12 11 10 11 10 8 8 8 12 13 13 14 13 14 13 14 13 12 11 11 11 11 11 13 13 14 13 12 12 12 12 12
15 15 15 14 13 13 13 13 14 13 13 13 12 11 11 11 8 8 9 12 13 13 13 14 14 14 15 15 13 13 14 12 11 11 12 13 12 11 10 11 12 12 11
16 15 15 15 13 12 13 12 13 14 13 13 12 11 10 11 9 8 9 11 12 13 13 13 14 14 13 11 15 16 14 13 11 11 11 11 10 10 10 11 15 14 14
14 14 15 14 13 13 13 12 12 14 13 13 12 11 10 11 9 9 10 11 13 13 14 13 12 15 12 12 15 14 15 14 13 13 14 13 13 14 11 13 13 15 15
12 14 14 14 13 13 13 12 12 13 13 13 12 10 10 10 12 9 9 11 12 14 13 14 14 11 12 12 12 13 14 13 14 15 14 15 17 17 16 14 14 14 15
13 13 13 13 13 12 13 13 11 11 11 11 10 10 10 9 10 9 9 9 10 12 13 14 15 12 12 12 13 13 13 14 15 15 15 20 15 19 16 14 14 14 14
14 14 14 14 13 12 13 12 10 9 10 10 9 10 10 9 9 9 9 9 9 11 12 12 11 12 13 14 14 13 17 16 16 16 17 20 16 16 17 16 16 17 14
15 14 14 13 13 12 11 11 9 8 9 9 9 9 9 9 10 11 11 11 10 11 11 14 15 15 14 14 17 17 18 16 17 16 16 17 17 19 19 19 20 17 16
14 14 13 13 12 12 12 11 9 8 8 9 9 8 9 10 10 10 12 13 13 13 20 21 21 20 20 20 20 20 20 19 18 16 15 15 17 19 20 18 18 17 18
14 13 13 13 13 13 13 11 7 6 6 6 6 6 7 8 8 8 9 10 10 10 22 23 21 21 21 21 22 21 21 21 17 15 15 15 16 19 21 20 19 18 18
14 13 13 14 15 14 15 14 11 8 6 6 6 6 6 8 7 8 9 9 9 11 23 23 22 21 22 22 22 22 22 21 17 16 16 15 20 21 21 20 20 20 20
15 14 15 15 16 16 16 14 11 9 9 10 7 6 7 7 8 8 8 9 12 13 23 23 23 21 23 23 23 23 24 23 18 17 16 16 21 23 22 21 21 23 22
14 15 16 16 16 16 15 12 9 8 9 9 9 8 8 7 8 9 8 18 15 22 24 23 23 22 23 24 24 25 25 25 24 23 21 23 25 23 22 23 21 22 22
16 17 17 18 18 17 16 13 10 9 10 10 10 11 10 10 11 11 10 20 19 19 21 21 23 22 22 24 25 25 25 25 25 24 25 25 25 25 23 23 25 22 23
17 18 19 18 18 17 15 13 9 9 10 11 10 10 9 11 11 11 11 13 17 17 18 20 22 22 23 24 25 26 25 26 27 26 24 25 26 23 25 23 23 24 24
18 19 19 20 19 17 13 12 9 10 10 11 10 10 8 10 11 11 11 11 15 18 18 18 20 20 21 21 23 24 25 25 27 26 24 24 24 24 25 24 23 24 25
19 20 20 20 19 16 14 12 10 10 11 11 10 10 10 10 11 11 11 11 15 17 18 19 20 22 23 22 24 23 23 24 24 24 23 24 24 25 25 24 24 24 24
20 20 20 20 19 16 15 13 10 10 10 11 11 10 10 10 11 11 11 13 16 18 18 19 19 20 22 23 24 25 24 25 25 24 24 22 24 25 25 26 27 28 25
21 21 21 20 19 17 15 13 11 10 11 11 11 11 10 10 11 11 12 14 16 19 20 20 20 22 22 23 23 24 22 23 25 24 24 24 25 26 27 26 27 27 28
21 22 22 20 18 17 15 13 11 11 11 11 11 12 11 10 11 12 13 15 17 19 20 21 21 22 23 23 23 24 23 21 23 23 23 23 24 26 26 27 28 27 30